Location: MAC-Johnson Site
(33.6264°N, 81.2093°W)
Time: 20:53:03
(UTC-04:00)

BlueWalker 3 - Pass Details

Date: 11 September 2024
Orbit: 472 x 485 km, 53.2° (Epoch: 10 October)

Event Time Altitude Azimuth Distance (km) Brightness Sun altitude
Rises 21:42:18 0° 320° (NW) 2,549 6.5 -26.2°
Reaches altitude 10° 21:44:31 10° 326° (NW) 1,670 5.3 -26.6°
Enters shadow 21:46:24 27° 339° (NNW) 973 3.7 -26.9°
